Time,TemperatureF,DewpointF,PressureIn,WindDirection,WindDirectionDegrees,WindSpeedMPH,WindSpeedGustMPH,Humidity,HourlyPrecipIn,Conditions,Clouds,dailyrainin,SoftwareType,DateUTC
2014-02-13 00:00:00,41.9,31.8,30.06,ESE,112,2.2,-999.0,67,-99.99,,,0.00,Acu-Link.com,2014-02-13 08:00:00,
2014-02-13 00:15:00,41.7,31.9,30.06,ENE,67,1.7,-999.0,68,-99.99,,,0.00,Acu-Link.com,2014-02-13 08:15:00,
2014-02-13 00:31:00,41.7,31.9,30.06,East,90,2.7,-999.0,68,-99.99,,,0.00,Acu-Link.com,2014-02-13 08:31:00,
2014-02-13 00:46:00,41.9,32.1,30.05,ENE,67,1.7,-999.0,68,-99.99,,,0.00,Acu-Link.com,2014-02-13 08:46:00,
2014-02-13 01:01:00,42.4,32.6,30.05,East,90,1.7,-999.0,68,-99.99,,,0.00,Acu-Link.com,2014-02-13 09:01:00,
2014-02-13 01:16:00,42.8,32.6,30.05,ESE,112,2.7,-999.0,67,-99.99,,,0.00,Acu-Link.com,2014-02-13 09:16:00,
2014-02-13 01:31:00,43.0,32.8,30.05,ENE,67,2.2,-999.0,67,-99.99,,,0.00,Acu-Link.com,2014-02-13 09:31:00,
2014-02-13 01:47:00,43.0,32.8,30.04,NE,45,2.2,-999.0,67,-99.99,,,0.00,Acu-Link.com,2014-02-13 09:47:00,
2014-02-13 02:02:00,43.2,33.0,30.04,ESE,112,2.2,-999.0,67,-99.99,,,0.00,Acu-Link.com,2014-02-13 10:02:00,
2014-02-13 02:17:00,43.3,33.1,30.04,East,90,2.7,-999.0,67,-99.99,,,0.00,Acu-Link.com,2014-02-13 10:17:00,
2014-02-13 02:32:00,43.3,32.7,30.04,ESE,112,2.7,-999.0,66,-99.99,,,0.00,Acu-Link.com,2014-02-13 10:32:00,
2014-02-13 02:47:00,43.3,32.7,30.04,East,90,3.7,-999.0,66,-99.99,,,0.00,Acu-Link.com,2014-02-13 10:47:00,
2014-02-13 03:03:00,43.3,33.1,30.04,ENE,67,2.2,-999.0,67,-99.99,,,0.00,Acu-Link.com,2014-02-13 11:03:00,
2014-02-13 03:18:00,43.2,33.4,30.03,ENE,67,0.0,-999.0,68,-99.99,,,0.00,Acu-Link.com,2014-02-13 11:18:00,
2014-02-13 03:33:00,43.2,33.0,30.03,NNE,22,2.7,-999.0,67,-99.99,,,0.00,Acu-Link.com,2014-02-13 11:33:00,
2014-02-13 03:48:00,43.7,33.5,30.03,NNE,22,1.7,-999.0,67,-99.99,,,0.00,Acu-Link.com,2014-02-13 11:48:00,
2014-02-13 04:04:00,44.2,33.9,30.03,North,0,1.1,-999.0,67,-99.99,,,0.00,Acu-Link.com,2014-02-13 12:04:00,
2014-02-13 04:19:00,45.0,34.0,30.03,NNE,22,2.2,-999.0,65,-99.99,,,0.00,Acu-Link.com,2014-02-13 12:19:00,
2014-02-13 04:34:00,45.1,34.0,30.03,NE,45,2.2,-999.0,65,-99.99,,,0.00,Acu-Link.com,2014-02-13 12:34:00,
2014-02-13 04:49:00,44.6,33.6,30.03,ESE,112,2.7,-999.0,65,-99.99,,,0.00,Acu-Link.com,2014-02-13 12:49:00,
2014-02-13 05:04:00,44.1,33.5,30.04,ESE,112,3.7,-999.0,66,-99.99,,,0.00,Acu-Link.com,2014-02-13 13:04:00,
2014-02-13 05:20:00,44.1,33.9,30.05,NNE,22,1.7,-999.0,67,-99.99,,,0.00,Acu-Link.com,2014-02-13 13:20:00,
2014-02-13 05:35:00,43.7,33.8,30.05,ENE,67,1.7,-999.0,68,-99.99,,,0.00,Acu-Link.com,2014-02-13 13:35:00,
2014-02-13 05:50:00,43.7,33.5,30.05,East,90,2.7,-999.0,67,-99.99,,,0.00,Acu-Link.com,2014-02-13 13:50:00,
2014-02-13 06:05:00,43.5,33.3,30.06,ESE,112,1.7,-999.0,67,-99.99,,,0.00,Acu-Link.com,2014-02-13 14:05:00,
2014-02-13 06:20:00,43.3,33.5,30.06,East,90,2.7,-999.0,68,-99.99,,,0.00,Acu-Link.com,2014-02-13 14:20:00,
2014-02-13 06:36:00,43.2,33.7,30.06,East,90,2.7,-999.0,69,-99.99,,,0.00,Acu-Link.com,2014-02-13 14:36:00,
2014-02-13 06:51:00,43.0,33.5,30.07,East,90,2.2,-999.0,69,-99.99,,,0.00,Acu-Link.com,2014-02-13 14:51:00,
2014-02-13 07:06:00,43.2,33.7,30.08,ENE,67,2.2,-999.0,69,-99.99,,,0.00,Acu-Link.com,2014-02-13 15:06:00,
2014-02-13 07:22:00,43.3,33.8,30.08,East,90,2.7,-999.0,69,-99.99,,,0.00,Acu-Link.com,2014-02-13 15:22:00,
2014-02-13 07:37:00,43.7,34.6,30.07,NW,315,1.1,-999.0,70,-99.99,,,0.00,Acu-Link.com,2014-02-13 15:37:00,
2014-02-13 07:52:00,44.2,35.4,30.07,East,90,2.7,-999.0,71,-99.99,,,0.00,Acu-Link.com,2014-02-13 15:52:00,
2014-02-13 08:07:00,45.7,36.8,30.08,East,90,3.7,-999.0,71,-99.99,,,0.00,Acu-Link.com,2014-02-13 16:07:00,
2014-02-13 08:22:00,47.1,38.2,30.08,ESE,112,1.7,-999.0,71,-99.99,,,0.00,Acu-Link.com,2014-02-13 16:22:00,
2014-02-13 08:38:00,48.7,39.7,30.09,ESE,112,2.2,-999.0,71,-99.99,,,0.00,Acu-Link.com,2014-02-13 16:38:00,
2014-02-13 08:53:00,50.2,40.4,30.08,East,90,2.2,-999.0,69,-99.99,,,0.00,Acu-Link.com,2014-02-13 16:53:00,
2014-02-13 09:08:00,51.3,40.7,30.09,North,0,2.2,-999.0,67,-99.99,,,0.00,Acu-Link.com,2014-02-13 17:08:00,
2014-02-13 09:23:00,53.2,34.0,30.09,WSW,247,0.0,-999.0,48,-99.99,,,0.00,Acu-Link.com,2014-02-13 17:23:00,
2014-02-13 09:38:00,57.7,32.9,30.09,SE,135,0.0,-999.0,39,-99.99,,,0.00,Acu-Link.com,2014-02-13 17:38:00,
2014-02-13 09:54:00,62.1,33.4,30.08,NNE,22,1.7,-999.0,34,-99.99,,,0.00,Acu-Link.com,2014-02-13 17:54:00,
2014-02-13 10:09:00,63.7,34.8,30.09,NNW,337,1.1,-999.0,34,-99.99,,,0.00,Acu-Link.com,2014-02-13 18:09:00,
2014-02-13 10:24:00,65.8,32.7,30.08,West,270,2.2,-999.0,29,-99.99,,,0.00,Acu-Link.com,2014-02-13 18:24:00,
2014-02-13 10:39:00,65.8,33.5,30.08,NE,45,1.1,-999.0,30,-99.99,,,0.00,Acu-Link.com,2014-02-13 18:39:00,
2014-02-13 10:54:00,66.4,31.4,30.08,NNE,22,2.7,-999.0,27,-99.99,,,0.00,Acu-Link.com,2014-02-13 18:54:00,
2014-02-13 11:10:00,67.1,32.0,30.07,SW,225,2.7,-999.0,27,-99.99,,,0.00,Acu-Link.com,2014-02-13 19:10:00,
2014-02-13 11:25:00,67.6,32.4,30.06,South,180,0.0,-999.0,27,-99.99,,,0.00,Acu-Link.com,2014-02-13 19:25:00,
2014-02-13 11:40:00,68.4,32.2,30.06,NNE,22,2.2,-999.0,26,-99.99,,,0.00,Acu-Link.com,2014-02-13 19:40:00,
2014-02-13 11:55:00,69.6,33.2,30.05,NNE,22,1.7,-999.0,26,-99.99,,,0.00,Acu-Link.com,2014-02-13 19:55:00,
2014-02-13 12:11:00,69.4,33.0,30.04,WNW,292,1.7,-999.0,26,-99.99,,,0.00,Acu-Link.com,2014-02-13 20:11:00,
2014-02-13 12:26:00,71.6,33.9,30.04,ESE,112,1.1,-999.0,25,-99.99,,,0.00,Acu-Link.com,2014-02-13 20:26:00,
2014-02-13 12:41:00,69.4,33.0,30.02,West,270,0.0,-999.0,26,-99.99,,,0.00,Acu-Link.com,2014-02-13 20:41:00,
2014-02-13 12:56:00,71.1,35.4,30.02,SSE,157,2.7,-999.0,27,-99.99,,,0.00,Acu-Link.com,2014-02-13 20:56:00,
2014-02-13 13:11:00,71.1,33.5,30.02,ENE,67,3.2,-999.0,25,-99.99,,,0.00,Acu-Link.com,2014-02-13 21:11:00,
2014-02-13 13:27:00,70.5,33.0,30.01,WSW,247,2.2,-999.0,25,-99.99,,,0.00,Acu-Link.com,2014-02-13 21:27:00,
2014-02-13 13:42:00,69.8,33.4,30.01,West,270,2.7,-999.0,26,-99.99,,,0.00,Acu-Link.com,2014-02-13 21:42:00,
2014-02-13 13:57:00,69.6,34.1,30.00,West,270,2.7,-999.0,27,-99.99,,,0.00,Acu-Link.com,2014-02-13 21:57:00,
2014-02-13 14:12:00,69.3,34.8,30.00,North,0,2.2,-999.0,28,-99.99,,,0.00,Acu-Link.com,2014-02-13 22:12:00,
2014-02-13 14:27:00,69.3,32.9,30.00,East,90,2.2,-999.0,26,-99.99,,,0.00,Acu-Link.com,2014-02-13 22:27:00,
2014-02-13 14:43:00,69.1,33.7,30.00,NNE,22,1.7,-999.0,27,-99.99,,,0.00,Acu-Link.com,2014-02-13 22:43:00,
2014-02-13 14:58:00,68.4,32.2,30.00,West,270,1.7,-999.0,26,-99.99,,,0.00,Acu-Link.com,2014-02-13 22:58:00,
2014-02-13 15:13:00,67.6,32.4,30.00,West,270,2.2,-999.0,27,-99.99,,,0.00,Acu-Link.com,2014-02-13 23:13:00,
2014-02-13 15:28:00,66.7,32.6,30.00,WNW,292,1.7,-999.0,28,-99.99,,,0.00,Acu-Link.com,2014-02-13 23:28:00,
2014-02-13 15:43:00,66.4,32.3,30.00,North,0,3.7,-999.0,28,-99.99,,,0.00,Acu-Link.com,2014-02-13 23:43:00,
2014-02-13 15:59:00,65.5,33.2,30.00,SSW,202,0.0,-999.0,30,-99.99,,,0.00,Acu-Link.com,2014-02-13 23:59:00,
2014-02-13 16:14:00,64.9,32.7,30.00,East,90,2.7,-999.0,30,-99.99,,,0.00,Acu-Link.com,2014-02-14 00:14:00,
2014-02-13 16:29:00,63.9,31.9,30.00,East,90,1.7,-999.0,30,-99.99,,,0.00,Acu-Link.com,2014-02-14 00:29:00,
2014-02-13 16:44:00,63.3,35.2,30.00,NNW,337,1.1,-999.0,35,-99.99,,,0.00,Acu-Link.com,2014-02-14 00:44:00,
2014-02-13 16:59:00,62.1,36.2,30.01,ESE,112,2.2,-999.0,38,-99.99,,,0.00,Acu-Link.com,2014-02-14 00:59:00,
2014-02-13 17:14:00,60.4,36.6,30.01,East,90,1.1,-999.0,41,-99.99,,,0.00,Acu-Link.com,2014-02-14 01:14:00,
2014-02-13 17:30:00,58.5,36.7,30.00,ENE,67,1.1,-999.0,44,-99.99,,,0.00,Acu-Link.com,2014-02-14 01:30:00,
2014-02-13 17:45:00,56.1,36.7,30.00,ENE,67,1.7,-999.0,48,-99.99,,,0.00,Acu-Link.com,2014-02-14 01:45:00,
2014-02-13 18:00:00,53.8,37.1,29.99,East,90,1.7,-999.0,53,-99.99,,,0.00,Acu-Link.com,2014-02-14 02:00:00,
2014-02-13 18:15:00,52.2,36.1,30.00,NE,45,1.7,-999.0,54,-99.99,,,0.00,Acu-Link.com,2014-02-14 02:15:00,
2014-02-13 18:30:00,50.9,35.8,30.00,East,90,1.7,-999.0,56,-99.99,,,0.00,Acu-Link.com,2014-02-14 02:30:00,
2014-02-13 18:46:00,50.0,35.4,30.00,East,90,1.7,-999.0,57,-99.99,,,0.00,Acu-Link.com,2014-02-14 02:46:00,
2014-02-13 19:01:00,49.1,35.4,30.01,East,90,2.2,-999.0,59,-99.99,,,0.00,Acu-Link.com,2014-02-14 03:01:00,
2014-02-13 19:16:00,48.2,34.6,30.01,East,90,1.7,-999.0,59,-99.99,,,0.00,Acu-Link.com,2014-02-14 03:16:00,
2014-02-13 19:31:00,47.7,34.1,30.02,East,90,2.2,-999.0,59,-99.99,,,0.00,Acu-Link.com,2014-02-14 03:31:00,
2014-02-13 19:47:00,46.9,33.3,30.02,East,90,2.2,-999.0,59,-99.99,,,0.00,Acu-Link.com,2014-02-14 03:47:00,
2014-02-13 20:02:00,46.4,32.9,30.03,ESE,112,2.2,-999.0,59,-99.99,,,0.00,Acu-Link.com,2014-02-14 04:02:00,
2014-02-13 20:17:00,45.9,32.0,30.02,East,90,2.2,-999.0,58,-99.99,,,0.00,Acu-Link.com,2014-02-14 04:17:00,
2014-02-13 20:32:00,45.5,30.7,30.02,NE,45,1.7,-999.0,56,-99.99,,,0.00,Acu-Link.com,2014-02-14 04:32:00,
2014-02-13 20:47:00,45.5,29.8,30.02,East,90,2.2,-999.0,54,-99.99,,,0.00,Acu-Link.com,2014-02-14 04:47:00,
2014-02-13 21:03:00,45.7,29.6,30.03,ESE,112,2.2,-999.0,53,-99.99,,,0.00,Acu-Link.com,2014-02-14 05:03:00,
2014-02-13 21:18:00,45.7,29.6,30.03,ESE,112,1.7,-999.0,53,-99.99,,,0.00,Acu-Link.com,2014-02-14 05:18:00,
2014-02-13 21:33:00,45.9,29.7,30.03,ENE,67,1.7,-999.0,53,-99.99,,,0.00,Acu-Link.com,2014-02-14 05:33:00,
2014-02-13 21:48:00,45.9,28.8,30.03,ENE,67,1.1,-999.0,51,-99.99,,,0.00,Acu-Link.com,2014-02-14 05:48:00,
2014-02-13 22:03:00,46.0,28.4,30.03,East,90,2.2,-999.0,50,-99.99,,,0.00,Acu-Link.com,2014-02-14 06:03:00,
2014-02-13 22:19:00,45.9,27.8,30.03,East,90,1.7,-999.0,49,-99.99,,,0.00,Acu-Link.com,2014-02-14 06:19:00,
2014-02-13 22:34:00,45.7,28.1,30.03,East,90,3.2,-999.0,50,-99.99,,,0.00,Acu-Link.com,2014-02-14 06:34:00,
2014-02-13 22:49:00,45.5,28.0,30.03,NNE,22,1.7,-999.0,50,-99.99,,,0.00,Acu-Link.com,2014-02-14 06:49:00,
2014-02-13 23:04:00,45.3,27.3,30.04,ENE,67,1.7,-999.0,49,-99.99,,,0.00,Acu-Link.com,2014-02-14 07:04:00,
2014-02-13 23:19:00,45.0,27.5,30.04,East,90,2.7,-999.0,50,-99.99,,,0.00,Acu-Link.com,2014-02-14 07:19:00,
2014-02-13 23:35:00,44.8,26.8,30.04,NNW,337,1.7,-999.0,49,-99.99,,,0.00,Acu-Link.com,2014-02-14 07:35:00,
2014-02-13 23:50:00,44.6,27.1,30.04,East,90,2.2,-999.0,50,-99.99,,,0.00,Acu-Link.com,2014-02-14 07:50:00,